Wind_Speed
12 13 13 14 14 15 16 17 18 20 20 20 20 21 22 23 23 24 25 25 25 24 25 26 27 27 27 27 27 28 29 29 29 29 28 28 29 29
14 14 15 15 15 16 17 17 18 19 19 20 21 21 22 23 23 24 24 24 25 26 26 27 28 28 29 29 29 29 30 30 30 30 30 30 30 30
14 15 17 17 17 18 19 19 19 19 19 20 22 21 21 22 23 23 24 24 25 26 26 27 28 29 30 30 29 30 30 31 32 31 31 31 30 30
16 16 17 18 18 19 20 20 20 20 20 21 22 23 23 23 23 24 24 25 26 26 27 27 28 29 30 31 31 32 31 31 31 31 31 31 31 31
17 18 18 18 19 20 21 21 22 22 21 21 22 23 24 24 24 24 25 26 27 27 27 28 28 29 30 31 31 31 31 31 31 31 31 30 31 31
18 18 19 19 20 20 21 22 22 22 23 23 23 23 24 24 24 25 26 26 27 28 27 27 27 28 29 30 30 30 31 31 31 31 31 31 31 30
20 20 20 20 20 21 21 21 22 22 23 23 24 24 25 25 25 26 26 26 27 27 27 28 28 29 29 30 30 30 31 31 30 31 31 31 31 31
21 22 22 21 21 21 21 22 22 22 23 24 24 25 25 26 26 26 26 26 27 28 29 29 29 29 30 30 30 31 31 31 31 31 31 31 31 31
23 23 23 23 23 23 23 23 23 24 24 25 25 25 26 26 27 27 27 27 28 29 30 30 30 31 31 31 31 32 31 31 31 31 31 32 32 33
24 24 25 25 24 24 24 24 24 24 25 25 26 27 28 28 29 29 29 29 30 30 30 30 31 32 32 32 32 33 33 32 32 32 33 33 34 34
26 26 25 26 26 26 26 26 25 26 26 26 26 27 28 29 29 30 30 31 31 31 32 32 32 32 32 32 32 33 33 33 33 33 33 34 35 35
27 27 27 27 27 27 27 27 27 27 27 27 28 28 28 29 30 30 30 31 32 32 32 33 33 33 32 33 34 34 34 34 34 34 35 35 36 36
28 27 27 27 27 27 27 28 28 28 28 29 29 29 29 29 30 30 30 30 31 32 32 32 32 32 32 32 33 34 34 34 35 35 35 35 36 36
29 28 27 27 27 27 28 28 29 29 30 30 30 30 30 30 31 32 32 32 32 32 32 32 32 32 33 33 33 34 35 35 35 35 35 36 36 36
29 28 28 28 28 28 29 29 30 30 31 31 31 31 31 31 31 32 33 33 33 33 33 33 34 34 34 35 35 35 36 36 37 36 36 36 37 37
31 31 30 29 29 29 29 30 31 31 32 32 32 33 33 33 33 33 33 34 34 34 35 35 35 35 35 35 36 36 36 36 36 36 36 37 37 37
33 33 32 31 31 31 31 32 32 33 33 33 33 33 34 34 34 34 34 34 35 35 36 36 36 36 37 37 37 37 37 37 37 37 37 37 37 37
34 34 34 34 34 34 33 34 34 33 33 34 34 34 34 35 35 35 35 36 37 37 37 36 37 37 37 37 38 38 37 37 38 38 37 37 37 37
36 36 35 35 36 35 35 35 35 35 35 35 35 35 35 36 37 37 37 38 38 38 38 39 39 39 39 38 39 39 38 38 38 37 37 37 37 36
37 36 37 37 37 36 36 36 36 36 36 36 36 37 37 37 38 38 39 39 39 39 39 39 39 39 39 39 38 38 38 38 37 37 36 36 35 35
36 37 37 37 37 37 37 37 36 36 37 37 38 38 39 39 39 39 39 39 39 39 39 39 39 40 40 39 38 38 37 37 36 36 35 35 34 33
37 37 37 38 37 37 37 37 37 37 37 38 38 39 39 40 40 40 40 40 40 40 40 40 39 39 38 38 37 36 35 35 35 34 34 33 33 32
37 37 37 37 37 37 38 38 38 38 38 39 39 39 39 40 40 40 40 40 40 40 40 40 39 38 37 37 36 36 35 35 34 34 33 33 32 32
Wind_Direction
278 278 277 275 274 274 271 269 268 268 269 271 272 269 267 268 269 268 267 269 272 272 272 272 274 275 277 277 277 276 276 275 274 275 277 277 277 276
281 276 276 275 277 277 275 271 270 270 270 272 272 272 271 269 270 272 270 271 272 272 273 274 275 276 277 278 278 277 276 275 274 274 276 277 276 276
294 285 279 277 280 281 280 275 272 272 272 273 273 274 274 272 274 273 273 273 275 275 274 276 276 275 276 277 278 278 278 277 275 274 275 275 276 276
300 296 292 284 282 282 283 280 275 273 272 272 273 274 274 274 273 274 274 276 277 277 276 276 276 276 277 276 276 277 277 277 277 275 274 275 275 275
303 299 296 294 290 285 283 281 279 276 274 274 275 275 275 277 275 275 277 278 279 278 278 277 278 278 279 276 277 276 277 276 275 274 274 275 275 275
304 301 299 295 292 288 286 284 281 281 279 276 276 278 278 280 280 279 279 280 280 280 280 279 279 278 279 279 279 278 277 276 274 273 274 275 276 277
303 301 299 297 293 289 288 287 286 284 282 279 278 277 279 281 281 281 281 280 280 281 281 280 279 280 281 281 280 278 278 277 276 275 274 275 276 277
303 301 298 299 297 294 291 290 289 287 286 284 281 279 280 282 282 282 282 281 281 282 282 282 281 281 281 281 281 281 281 279 278 277 276 275 275 276
303 301 298 297 297 296 294 292 289 287 287 287 285 281 281 282 282 282 281 280 282 282 282 282 282 282 281 280 280 281 282 280 279 278 277 276 276 276
302 301 299 297 295 295 295 294 291 289 288 288 288 286 283 282 283 283 283 283 282 282 281 282 282 282 282 281 281 281 281 281 280 279 279 279 279 277
303 302 300 297 295 295 295 295 294 292 290 289 290 289 287 284 284 284 284 284 284 284 283 283 282 282 282 281 281 281 281 281 279 279 279 280 280 279
303 301 299 298 296 293 292 293 294 293 292 292 292 291 289 287 286 286 286 287 287 286 285 284 283 282 282 282 281 281 281 280 279 279 279 280 280 279
303 302 301 298 296 293 291 291 291 292 292 292 292 292 290 289 288 288 288 289 289 288 288 286 284 283 283 283 283 282 281 281 281 280 281 280 280 280
303 303 302 301 296 294 292 290 290 290 291 292 292 291 290 288 288 288 288 288 289 288 288 288 286 285 285 284 284 283 282 282 282 281 281 281 280 280
302 301 301 300 298 296 294 292 291 291 292 292 291 291 290 290 289 288 288 287 288 289 289 288 287 286 286 285 285 284 284 283 283 283 283 283 282 281
300 299 299 298 297 296 296 295 293 292 292 292 291 291 290 290 290 289 289 290 289 288 288 287 287 286 287 286 285 284 284 283 283 282 283 283 282 282
298 297 297 297 297 297 296 296 295 294 293 292 291 291 290 290 290 289 289 290 289 289 288 287 286 286 286 286 286 285 284 283 283 283 282 281 281 280
295 296 296 295 295 295 295 295 294 293 293 292 291 290 290 290 289 289 289 289 289 289 289 288 288 287 286 285 285 285 284 284 283 282 281 281 281 279
294 293 293 293 293 294 294 294 293 292 292 292 292 291 290 290 290 289 289 289 289 290 289 288 288 287 286 286 286 285 285 284 283 282 282 281 281 280
293 293 292 292 292 293 293 293 292 291 291 291 290 290 289 290 289 289 289 289 290 290 289 288 288 288 287 287 286 286 286 285 283 281 281 280 280 279
293 293 293 292 292 293 293 292 291 291 291 291 290 290 289 289 289 289 289 289 289 289 289 288 288 288 288 287 286 286 285 284 283 281 280 279 278 278
293 292 291 291 291 291 291 291 292 292 291 291 291 291 290 290 289 289 288 288 288 288 288 289 289 289 288 287 286 285 284 283 282 281 280 279 278 278
293 292 291 291 291 291 291 291 292 292 291 291 292 292 291 290 290 290 289 289 289 288 288 289 289 289 287 286 285 284 283 282 281 281 280 279 278 277
Height
5873 5872 5872 5871 5870 5869 5868 5867 5867 5866 5865 5864 5863 5862 5861 5860 5859 5858 5858 5857 5856 5855 5854 5853 5852 5851 5850 5849 5848 5847 5846 5844 5843 5842 5841 5839 5838 5837
5869 5868 5867 5866 5865 5864 5863 5862 5861 5860 5859 5858 5857 5856 5855 5854 5853 5852 5851 5851 5850 5849 5848 5847 5845 5844 5843 5842 5841 5839 5838 5837 5835 5834 5833 5832 5830 5829
5865 5864 5863 5861 5860 5859 5858 5857 5855 5855 5854 5853 5851 5850 5849 5848 5847 5846 5845 5844 5843 5842 5841 5839 5838 5837 5836 5835 5833 5832 5830 5829 5827 5826 5825 5824 5822 5821
5861 5860 5858 5856 5855 5854 5853 5851 5850 5849 5848 5847 5845 5844 5843 5842 5841 5840 5839 5838 5837 5835 5834 5832 5831 5830 5828 5827 5825 5824 5822 5820 5819 5818 5817 5816 5814 5813
5857 5855 5853 5851 5850 5849 5847 5845 5844 5843 5842 5841 5839 5838 5837 5835 5834 5833 5832 5831 5830 5828 5827 5825 5823 5822 5820 5818 5817 5815 5814 5812 5811 5810 5808 5807 5806 5805
5853 5850 5848 5846 5844 5843 5841 5839 5838 5836 5835 5834 5833 5832 5830 5829 5828 5826 5825 5823 5822 5821 5819 5817 5816 5814 5812 5811 5809 5807 5806 5804 5803 5802 5800 5799 5798 5796
5848 5846 5843 5841 5839 5837 5835 5834 5832 5830 5828 5827 5826 5825 5823 5822 5820 5819 5817 5816 5814 5813 5811 5810 5808 5806 5804 5802 5801 5799 5797 5796 5794 5793 5792 5791 5789 5788
5843 5840 5838 5835 5833 5831 5830 5828 5826 5824 5822 5820 5819 5817 5816 5814 5813 5811 5809 5808 5807 5806 5804 5802 5800 5798 5796 5794 5793 5791 5789 5788 5786 5784 5783 5782 5781 5779
5837 5834 5832 5829 5827 5825 5823 5821 5819 5817 5816 5814 5812 5810 5809 5807 5805 5804 5802 5800 5799 5797 5795 5793 5791 5790 5788 5786 5784 5783 5781 5779 5777 5776 5774 5773 5771 5770
5830 5828 5825 5823 5821 5818 5816 5814 5812 5810 5808 5806 5805 5803 5801 5799 5797 5795 5793 5792 5790 5788 5786 5784 5782 5781 5779 5777 5775 5773 5771 5770 5768 5767 5765 5764 5762 5760
5824 5821 5818 5816 5814 5811 5809 5807 5805 5803 5800 5798 5796 5794 5792 5790 5788 5787 5785 5783 5781 5779 5777 5775 5773 5771 5769 5767 5765 5763 5762 5760 5758 5757 5755 5754 5752 5750
5817 5814 5811 5808 5806 5803 5801 5799 5797 5795 5793 5791 5789 5786 5784 5782 5779 5778 5776 5774 5772 5770 5767 5765 5763 5761 5760 5758 5755 5753 5752 5750 5748 5746 5745 5743 5741 5739
5810 5806 5803 5800 5798 5796 5793 5791 5789 5787 5785 5783 5781 5778 5776 5774 5771 5769 5767 5765 5763 5761 5758 5756 5754 5752 5750 5748 5746 5744 5741 5740 5738 5736 5734 5732 5730 5729
5802 5799 5796 5793 5790 5788 5786 5783 5781 5779 5777 5774 5772 5770 5768 5765 5763 5760 5758 5755 5753 5751 5749 5747 5744 5742 5740 5738 5736 5734 5731 5729 5727 5725 5723 5721 5719 5718
5793 5791 5788 5785 5782 5780 5777 5775 5772 5770 5768 5766 5763 5761 5758 5756 5753 5751 5748 5746 5743 5741 5739 5737 5734 5732 5729 5727 5725 5723 5721 5718 5716 5714 5712 5710 5708 5707
5785 5782 5779 5776 5774 5771 5769 5766 5763 5761 5758 5756 5754 5751 5749 5746 5743 5741 5738 5736 5734 5731 5728 5726 5723 5721 5718 5716 5714 5711 5709 5707 5705 5703 5701 5699 5697 5695
5776 5773 5770 5768 5765 5762 5760 5757 5754 5751 5749 5746 5744 5741 5739 5736 5733 5731 5728 5726 5723 5720 5718 5715 5712 5709 5707 5705 5702 5700 5698 5696 5694 5692 5690 5687 5685 5684
5766 5763 5761 5758 5755 5753 5750 5747 5744 5742 5739 5736 5734 5731 5728 5725 5723 5720 5717 5715 5712 5709 5706 5703 5700 5698 5695 5693 5691 5688 5686 5684 5682 5680 5677 5675 5674 5672
5756 5753 5750 5748 5745 5742 5739 5737 5734 5731 5728 5726 5723 5720 5718 5715 5712 5709 5706 5703 5700 5697 5694 5692 5689 5686 5684 5682 5679 5676 5674 5672 5670 5668 5665 5663 5662 5661
5745 5742 5739 5736 5734 5731 5728 5725 5722 5720 5717 5715 5712 5709 5706 5703 5700 5697 5694 5691 5688 5685 5682 5679 5677 5674 5671 5669 5667 5664 5661 5659 5657 5656 5654 5652 5650 5649
5733 5731 5728 5725 5722 5720 5717 5714 5711 5708 5705 5703 5700 5697 5694 5691 5688 5685 5682 5679 5676 5673 5670 5667 5664 5661 5659 5656 5655 5652 5650 5647 5645 5643 5642 5641 5639 5638
5722 5719 5716 5713 5711 5708 5705 5702 5699 5697 5694 5691 5688 5685 5682 5679 5676 5673 5670 5667 5663 5660 5657 5654 5652 5649 5646 5644 5642 5640 5638 5636 5633 5631 5630 5629 5628 5627
5710 5707 5705 5702 5699 5696 5693 5690 5687 5685 5682 5679 5676 5672 5669 5666 5663 5660 5657 5653 5651 5648 5645 5642 5639 5636 5634 5631 5629 5628 5626 5624 5622 5621 5620 5618 5617 5616